TimeCST,TemperatureF,Dew PointF,Humidity,Sea Level PressureIn,VisibilityMPH,Wind Direction,Wind SpeedMPH,Gust SpeedMPH,PrecipitationIn,Events,Conditions,WindDirDegrees,DateUTC
12:15 AM,44.6,41.0,87,30.22,10.0,Calm,Calm,-,N/A,,Clear,0,2013-01-22 06:15:00
1:15 AM,44.6,41.0,87,30.22,10.0,Calm,Calm,-,N/A,,Clear,0,2013-01-22 07:15:00
1:55 AM,44.6,41.0,87,30.23,10.0,North,3.5,-,N/A,,Clear,10,2013-01-22 07:55:00
2:15 AM,44.6,41.0,87,30.24,10.0,Calm,Calm,-,N/A,,Clear,0,2013-01-22 08:15:00
2:35 AM,44.6,41.0,87,30.24,10.0,Calm,Calm,-,N/A,,Clear,0,2013-01-22 08:35:00
2:55 AM,42.8,41.0,93,30.24,10.0,NNE,3.5,-,N/A,,Clear,20,2013-01-22 08:55:00
3:15 AM,44.6,41.0,87,30.24,10.0,NE,3.5,-,N/A,,Clear,50,2013-01-22 09:15:00
3:35 AM,46.4,42.8,87,30.24,10.0,ENE,4.6,-,N/A,,Clear,60,2013-01-22 09:35:00
3:55 AM,46.4,42.8,87,30.25,10.0,ENE,3.5,-,N/A,,Clear,60,2013-01-22 09:55:00
4:15 AM,44.6,41.0,87,30.25,10.0,ENE,3.5,-,N/A,,Clear,60,2013-01-22 10:15:00
4:35 AM,44.6,41.0,87,30.26,10.0,NNE,3.5,-,N/A,,Clear,30,2013-01-22 10:35:00
4:55 AM,42.8,39.2,87,30.26,10.0,NNE,3.5,-,N/A,,Clear,30,2013-01-22 10:55:00
5:15 AM,42.8,39.2,87,30.26,10.0,NNE,3.5,-,N/A,,Clear,30,2013-01-22 11:15:00
5:35 AM,42.8,39.2,87,30.27,10.0,Calm,Calm,-,N/A,,Clear,0,2013-01-22 11:35:00
5:55 AM,42.8,37.4,81,30.27,10.0,NE,3.5,-,N/A,,Clear,40,2013-01-22 11:55:00
6:15 AM,41.0,37.4,87,30.28,10.0,Calm,Calm,-,N/A,,Clear,0,2013-01-22 12:15:00
6:35 AM,41.0,37.4,87,30.28,10.0,NE,3.5,-,N/A,,Clear,40,2013-01-22 12:35:00
6:55 AM,41.0,37.4,87,30.29,10.0,NNE,3.5,-,N/A,,Clear,20,2013-01-22 12:55:00
7:15 AM,41.0,37.4,87,30.30,10.0,NE,4.6,-,N/A,,Clear,40,2013-01-22 13:15:00
7:35 AM,42.8,37.4,81,30.31,10.0,NE,5.8,-,N/A,,Clear,40,2013-01-22 13:35:00
7:55 AM,42.8,37.4,81,30.32,10.0,NE,5.8,-,N/A,,Clear,50,2013-01-22 13:55:00
8:15 AM,44.6,37.4,76,30.31,10.0,ENE,5.8,-,N/A,,Clear,60,2013-01-22 14:15:00
8:35 AM,46.4,37.4,71,30.32,10.0,NE,4.6,-,N/A,,Clear,50,2013-01-22 14:35:00
8:55 AM,48.2,37.4,66,30.33,10.0,ENE,4.6,-,N/A,,Clear,60,2013-01-22 14:55:00
9:15 AM,50.0,35.6,58,30.34,10.0,ENE,3.5,-,N/A,,Clear,70,2013-01-22 15:15:00
9:55 AM,51.8,37.4,58,30.35,10.0,East,5.8,-,N/A,,Clear,80,2013-01-22 15:55:00
10:15 AM,53.6,37.4,54,30.35,10.0,Calm,Calm,-,N/A,,Clear,0,2013-01-22 16:15:00
10:35 AM,55.4,37.4,51,30.35,10.0,ENE,4.6,-,N/A,,Clear,60,2013-01-22 16:35:00
11:35 AM,60.8,37.4,42,30.34,10.0,Calm,Calm,-,N/A,,Clear,0,2013-01-22 17:35:00
11:55 AM,62.6,37.4,39,30.33,10.0,Calm,Calm,-,N/A,,Clear,0,2013-01-22 17:55:00
12:15 PM,64.4,39.2,40,30.31,10.0,Calm,Calm,-,N/A,,Clear,0,2013-01-22 18:15:00
12:35 PM,64.4,37.4,37,30.30,10.0,Calm,Calm,-,N/A,,Clear,0,2013-01-22 18:35:00
12:55 PM,64.4,37.4,37,30.29,10.0,Calm,Calm,-,N/A,,Clear,0,2013-01-22 18:55:00
1:15 PM,66.2,37.4,35,30.28,10.0,Calm,Calm,-,N/A,,Clear,0,2013-01-22 19:15:00
1:35 PM,68.0,37.4,33,30.27,10.0,SE,4.6,-,N/A,,Clear,130,2013-01-22 19:35:00
1:55 PM,68.0,37.4,33,30.26,10.0,North,-9999.0,-,N/A,,Clear,0,2013-01-22 19:55:00
2:15 PM,68.0,37.4,33,30.26,10.0,SSE,4.6,-,N/A,,Clear,160,2013-01-22 20:15:00
2:35 PM,68.0,37.4,33,30.26,10.0,SSW,3.5,-,N/A,,Clear,200,2013-01-22 20:35:00
2:55 PM,68.0,39.2,35,30.26,10.0,Calm,Calm,-,N/A,,Scattered Clouds,0,2013-01-22 20:55:00
3:15 PM,69.8,39.2,33,30.26,10.0,South,4.6,-,N/A,,Scattered Clouds,190,2013-01-22 21:15:00
3:35 PM,69.8,37.4,31,30.26,10.0,South,6.9,-,N/A,,Clear,190,2013-01-22 21:35:00
3:55 PM,68.0,37.4,33,30.26,10.0,South,4.6,-,N/A,,Clear,180,2013-01-22 21:55:00
4:15 PM,68.0,37.4,33,30.26,10.0,South,6.9,-,N/A,,Clear,170,2013-01-22 22:15:00
4:35 PM,68.0,39.2,35,30.26,10.0,South,3.5,-,N/A,,Clear,170,2013-01-22 22:35:00
4:55 PM,66.2,41.0,40,30.26,10.0,South,8.1,-,N/A,,Clear,170,2013-01-22 22:55:00
5:15 PM,64.4,39.2,40,30.27,10.0,SSE,6.9,-,N/A,,Clear,160,2013-01-22 23:15:00
5:35 PM,62.6,41.0,45,30.26,10.0,South,5.8,-,N/A,,Clear,170,2013-01-22 23:35:00
5:55 PM,60.8,42.8,52,30.26,10.0,SSE,4.6,-,N/A,,Clear,160,2013-01-22 23:55:00
6:15 PM,59.0,42.8,55,30.26,10.0,SSE,5.8,-,N/A,,Clear,160,2013-01-23 00:15:00
6:35 PM,57.2,44.6,63,30.27,10.0,SSE,5.8,-,N/A,,Clear,160,2013-01-23 00:35:00
6:55 PM,55.4,44.6,67,30.27,10.0,SSE,4.6,-,N/A,,Clear,150,2013-01-23 00:55:00
7:15 PM,53.6,44.6,72,30.28,10.0,South,3.5,-,N/A,,Clear,170,2013-01-23 01:15:00
7:35 PM,53.6,44.6,72,30.28,10.0,SSE,4.6,-,N/A,,Clear,160,2013-01-23 01:35:00
7:55 PM,51.8,46.4,82,30.28,10.0,SSE,3.5,-,N/A,,Clear,150,2013-01-23 01:55:00
8:15 PM,51.8,46.4,82,30.28,10.0,SSE,3.5,-,N/A,,Clear,150,2013-01-23 02:15:00
8:35 PM,51.8,46.4,82,30.28,10.0,SE,3.5,-,N/A,,Clear,140,2013-01-23 02:35:00
8:55 PM,50.0,46.4,87,30.29,10.0,SSE,4.6,-,N/A,,Clear,150,2013-01-23 02:55:00
9:15 PM,50.0,46.4,87,30.30,7.0,SE,3.5,-,N/A,,Clear,140,2013-01-23 03:15:00
9:35 PM,50.0,46.4,87,30.30,5.0,SE,3.5,-,N/A,,Clear,140,2013-01-23 03:35:00
9:55 PM,50.0,46.4,87,30.31,4.0,ESE,3.5,-,N/A,,Clear,120,2013-01-23 03:55:00
10:15 PM,50.0,46.4,87,30.31,4.0,SE,3.5,-,N/A,,Clear,130,2013-01-23 04:15:00
10:35 PM,50.0,46.4,87,30.31,3.0,SE,3.5,-,N/A,,Clear,130,2013-01-23 04:35:00
11:15 PM,50.0,46.4,87,30.31,1.8,SE,3.5,-,N/A,,Mist,130,2013-01-23 05:15:00
11:55 PM,48.2,44.6,87,30.31,1.5,Calm,Calm,-,N/A,,Mist,0,2013-01-23 05:55:00